Date,TemperatureHighF,TemperatureAvgF,TemperatureLowF,DewpointHighF,DewpointAvgF,DewpointLowF,HumidityHigh,HumidityAvg,HumidityLow,PressureMaxIn,PressureMinIn,WindSpeedMaxMPH,WindSpeedAvgMPH,GustSpeedMaxMPH,PrecipitationSumIn
2013-2-1,26.0,26.0,26.0,18.0,18.0,18.0,72,72,72,30.31,30.31,2,2,4,0.00
2013-2-2,48.0,32.2,17.0,28.0,21.7,12.0,79,66,44,30.38,30.26,7,2,9,0.00
2013-2-3,54.0,31.6,12.0,29.0,18.8,8.0,84,63,31,30.25,30.15,11,3,14,0.00
2013-2-4,64.0,36.4,9.0,25.0,13.9,4.0,81,47,14,30.21,30.02,5,2,7,0.00
2013-2-5,63.0,41.7,17.0,19.0,11.6,5.0,65,35,11,30.04,29.84,14,4,21,0.00
2013-2-6,54.0,34.4,13.0,20.0,9.7,2.0,68,39,14,30.13,30.00,8,3,13,0.00
2013-2-7,56.0,38.6,22.0,16.0,5.9,-7.0,46,29,8,30.01,29.75,25,8,33,0.00
2013-2-8,37.0,33.1,27.0,21.0,15.3,10.0,58,48,36,29.86,29.78,15,10,24,0.00
2013-2-9,41.0,31.0,19.0,17.0,9.8,3.0,58,42,25,30.03,29.87,14,7,20,0.00
2013-2-10,43.0,32.2,19.0,19.0,10.4,4.0,56,41,22,30.09,29.99,15,7,22,0.00
2013-2-11,43.0,26.7,5.0,13.0,3.7,-3.0,70,40,18,30.24,30.10,6,3,11,0.00
2013-2-12,50.0,32.2,8.0,13.0,6.8,-4.0,62,37,20,30.34,30.25,7,2,10,0.00
2013-2-13,52.0,35.0,9.0,18.0,12.4,-3.0,59,41,24,30.38,30.25,9,3,14,0.00
2013-2-14,54.0,35.0,13.0,21.0,15.2,1.0,67,47,28,30.41,30.28,8,4,15,0.00
2013-2-15,59.0,34.3,10.0,23.0,13.7,3.0,73,47,20,30.47,30.30,4,2,8,0.00
2013-2-16,61.0,37.1,9.0,17.0,8.2,-1.0,63,35,12,30.34,30.01,5,2,9,0.00
2013-2-17,51.0,30.1,9.0,19.0,6.6,-4.0,56,39,21,30.03,29.96,14,5,21,0.00
2013-2-18,55.0,31.2,7.0,11.0,3.9,-8.0,53,34,17,30.04,29.70,8,2,12,0.00
2013-2-19,46.0,36.2,24.0,18.0,10.8,4.0,48,35,25,29.70,29.47,14,5,21,0.00
2013-2-20,45.0,35.9,25.0,17.0,9.8,-1.0,59,36,16,29.90,29.60,17,10,24,0.00
2013-2-21,45.0,32.9,14.0,9.0,3.7,-2.0,50,30,18,30.07,29.89,10,5,17,0.00
2013-2-22,51.0,36.5,14.0,15.0,7.9,-4.0,55,32,19,30.19,29.98,8,3,11,0.00
2013-2-23,48.0,35.1,16.0,29.0,12.3,4.0,76,40,26,30.20,29.83,26,11,37,0.00
2013-2-24,43.0,30.0,9.0,12.0,4.5,-1.0,68,37,17,30.31,30.20,5,2,10,0.00
2013-2-25,54.0,30.9,5.0,9.0,1.2,-10.0,56,32,14,30.22,30.05,19,7,28,0.00
2013-2-26,43.0,28.6,14.0,9.0,0.2,-7.0,48,30,16,30.28,30.13,8,3,14,0.00
2013-2-27,58.0,30.3,6.0,5.0,-4.0,-12.0,50,27,8,30.37,30.23,8,2,16,0.00